Weather History for O'Neill, NE

Change the Weather History Date:

Tuesday, October 8, 2013

  Actual Average Record
Temperature  
Mean Temperature 66 °F -  
Max Temperature 78 °F 67 °F 90 °F (2010)
Min Temperature 55 °F 41 °F 15 °F (2000)
Cooling Degree Days 2    
Growing Degree Days 16 (Base 50)    
Moisture  
Dew Point 39 °F    
Average Humidity 40    
Maximum Humidity 54    
Minimum Humidity 20    
Precipitation  
Precipitation 0.00 in - - ()
Sea Level Pressure  
Sea Level Pressure 29.81 in    
Wind  
Wind Speed 14 mph (South)    
Max Wind Speed 25 mph    
Max Gust Speed 33 mph    
Visibility 10 miles    
Events      
Averages and records for this station are not official NWS values.
T = Trace of Precipitation, MM = Missing Value Source: NWS Daily Summary

Daily Weather History Graph

Daily Weather History Graph

Search for Another Location

Airport:

Trip Planner

Search our weather history database for the weather conditions in past years. The results will help you decide how hot, cold, wet, or windy it might be!

Date:

Astronomy

Oct. 08, 2013 Rise Set
Actual Time 7:39 AM CDT 7:03 PM CDT
Civil Twilight 7:11 AM CDT 7:31 PM CDT
Nautical Twilight 6:39 AM CDT 8:04 PM CDT
Astronomical Twilight 6:06 AM CDT 8:36 PM CDT
Moon 11:40 AM CDT (10/8) 9:36 PM CDT (10/8)
Length of Visible Light 12h 19m
Length of Day
11h 23m
Waxing Crescent, 16% of the Moon is Illuminated
Oct 8
Waxing Crescent
Oct 11
First Quarter
Oct 18
Full
Oct 26
Last Quarter
Nov 3
New

Hourly Weather History & Observations

Time (CDT) Temp. Dew Point Humidity Pressure Visibility Wind Dir Wind Speed Gust Speed Precip Events Conditions
12:15 AM 58.8 °F 41.0 °F 52% 29.88 in 10.0 mi South 9.2 mph - N/A   Clear
12:35 AM 60.1 °F 40.1 °F 48% 29.87 in 10.0 mi South 13.8 mph 18.4 mph N/A   Clear
12:55 AM 60.1 °F 39.6 °F 47% 29.87 in 10.0 mi South 15.0 mph 19.6 mph N/A   Clear
1:15 AM 59.5 °F 39.4 °F 47% 29.87 in 10.0 mi South 13.8 mph - N/A   Clear
1:35 AM 58.6 °F 39.6 °F 49% 29.87 in 10.0 mi South 10.4 mph - N/A   Clear
1:55 AM 58.1 °F 39.4 °F 50% 29.86 in 10.0 mi South 12.7 mph - N/A   Clear
2:15 AM 57.2 °F 39.6 °F 52% 29.87 in 10.0 mi South 9.2 mph - N/A   Clear
2:35 AM 56.7 °F 39.4 °F 52% 29.86 in 10.0 mi South 9.2 mph - N/A   Clear
2:55 AM 56.8 °F 39.4 °F 52% 29.85 in 10.0 mi South 9.2 mph - N/A   Clear
3:15 AM 57.6 °F 39.2 °F 50% 29.85 in 10.0 mi South 9.2 mph - N/A   Clear
3:35 AM 58.1 °F 38.8 °F 49% 29.85 in 10.0 mi South 11.5 mph - N/A   Clear
3:55 AM 57.9 °F 39.0 °F 49% 29.83 in 10.0 mi South 11.5 mph - N/A   Clear
4:15 AM 58.3 °F 38.8 °F 48% 29.83 in 10.0 mi South 12.7 mph 17.3 mph N/A   Clear
4:35 AM 58.1 °F 39.2 °F 49% 29.83 in 10.0 mi South 8.1 mph - N/A   Clear
4:55 AM 57.4 °F 39.4 °F 51% 29.83 in 10.0 mi South 10.4 mph 16.1 mph N/A   Clear
5:15 AM 57.2 °F 39.6 °F 52% 29.82 in 10.0 mi South 12.7 mph 20.7 mph N/A   Clear
5:35 AM 58.1 °F 39.2 °F 49% 29.82 in 10.0 mi South 13.8 mph 20.7 mph N/A   Clear
5:55 AM 57.2 °F 39.2 °F 51% 29.82 in 10.0 mi South 13.8 mph 21.9 mph N/A   Clear
6:15 AM 56.5 °F 39.4 °F 53% 29.82 in 10.0 mi South 17.3 mph 20.7 mph N/A   Clear
6:35 AM 56.3 °F 39.2 °F 53% 29.82 in 10.0 mi South 18.4 mph 23.0 mph N/A   Clear
6:55 AM 55.8 °F 39.2 °F 54% 29.81 in 10.0 mi South 15.0 mph 21.9 mph N/A   Clear
7:15 AM 55.6 °F 39.0 °F 54% 29.81 in 10.0 mi South 13.8 mph 20.7 mph N/A   Clear
7:35 AM 55.6 °F 38.8 °F 53% 29.81 in 10.0 mi South 12.7 mph 21.9 mph N/A   Clear
7:55 AM 55.4 °F 39.2 °F 54% 29.82 in 10.0 mi South 13.8 mph 20.7 mph N/A   Clear
8:15 AM 56.3 °F 39.0 °F 52% 29.82 in 10.0 mi South 16.1 mph 23.0 mph N/A   Clear
8:35 AM 56.3 °F 39.2 °F 53% 29.83 in 10.0 mi South 15.0 mph 20.7 mph N/A   Clear
8:55 AM 57.0 °F 39.4 °F 52% 29.82 in 10.0 mi South 13.8 mph 23.0 mph N/A   Clear
9:15 AM 57.4 °F 39.6 °F 51% 29.82 in 10.0 mi South 16.1 mph 24.2 mph N/A   Clear
9:35 AM 58.1 °F 40.1 °F 51% 29.83 in 10.0 mi South 15.0 mph 21.9 mph N/A   Clear
9:55 AM 58.3 °F 40.3 °F 51% 29.82 in 10.0 mi South 13.8 mph 21.9 mph N/A   Clear
10:15 AM 60.6 °F 40.5 °F 47% 29.82 in 10.0 mi South 17.3 mph 21.9 mph N/A   Clear
10:35 AM 63.5 °F 39.9 °F 42% 29.81 in 10.0 mi South 21.9 mph 27.6 mph N/A   Clear
10:55 AM 65.1 °F 39.7 °F 39% 29.81 in 10.0 mi South 23.0 mph 26.5 mph N/A   Clear
11:15 AM 65.5 °F 39.7 °F 39% 29.81 in 10.0 mi South 20.7 mph 28.8 mph N/A   Clear
11:35 AM 67.3 °F 38.8 °F 35% 29.80 in 10.0 mi SSW 21.9 mph 32.2 mph N/A   Clear
11:55 AM 68.2 °F 38.5 °F 34% 29.79 in 10.0 mi South 21.9 mph 28.8 mph N/A   Clear
12:15 PM 68.2 °F 37.6 °F 33% 29.79 in 10.0 mi South 18.4 mph 26.5 mph N/A   Clear
12:35 PM 69.4 °F 39.0 °F 33% 29.78 in 10.0 mi South 16.1 mph 23.0 mph N/A   Clear
12:55 PM 70.9 °F 37.2 °F 29% 29.78 in 10.0 mi South 23.0 mph 29.9 mph N/A   Clear
1:15 PM 70.2 °F 36.5 °F 29% 29.78 in 10.0 mi SSW 25.3 mph 32.2 mph N/A   Clear
1:35 PM 72.3 °F 37.0 °F 28% 29.78 in 10.0 mi SSW 20.7 mph 26.5 mph N/A   Clear
1:55 PM 73.0 °F 35.6 °F 25% 29.77 in 10.0 mi South 25.3 mph 32.2 mph N/A   Clear
2:15 PM 73.4 °F 36.5 °F 26% 29.77 in 10.0 mi South 24.2 mph 32.2 mph N/A   Clear
2:35 PM 74.7 °F 35.4 °F 24% 29.76 in 10.0 mi SSW 23.0 mph 31.1 mph N/A   Clear
2:55 PM 75.0 °F 35.2 °F 24% 29.76 in 10.0 mi SSW 24.2 mph 33.4 mph N/A   Clear
3:15 PM 76.1 °F 35.6 °F 23% 29.76 in 10.0 mi South 21.9 mph 28.8 mph N/A   Clear
3:35 PM 77.0 °F 36.3 °F 23% 29.76 in 10.0 mi South 16.1 mph 25.3 mph N/A   Clear
3:55 PM 76.6 °F 35.1 °F 22% 29.76 in 10.0 mi South 20.7 mph 28.8 mph N/A   Clear
4:15 PM 77.9 °F 35.2 °F 21% 29.75 in 10.0 mi South 19.6 mph 31.1 mph N/A   Clear
4:35 PM 77.2 °F 35.2 °F 22% 29.75 in 10.0 mi South 19.6 mph 26.5 mph N/A   Clear
4:55 PM 77.2 °F 35.4 °F 22% 29.75 in 10.0 mi South 16.1 mph 24.2 mph N/A   Clear
5:15 PM 77.9 °F 35.1 °F 21% 29.75 in 10.0 mi South 17.3 mph 23.0 mph N/A   Clear
5:35 PM 78.8 °F 34.9 °F 20% 29.75 in 10.0 mi South 16.1 mph 20.7 mph N/A   Clear
5:55 PM 78.1 °F 35.1 °F 21% 29.75 in 10.0 mi South 15.0 mph 21.9 mph N/A   Clear
6:15 PM 76.8 °F 34.9 °F 22% 29.75 in 10.0 mi South 13.8 mph 19.6 mph N/A   Clear
6:35 PM 74.3 °F 36.3 °F 25% 29.76 in 10.0 mi South 9.2 mph - N/A   Clear
6:55 PM 71.1 °F 37.4 °F 29% 29.76 in 10.0 mi South 8.1 mph - N/A   Clear
7:15 PM 68.0 °F 40.1 °F 36% 29.76 in 10.0 mi SSE 9.2 mph - N/A   Clear
7:35 PM 68.5 °F 41.0 °F 37% 29.77 in 10.0 mi SSE 11.5 mph - N/A   Clear
7:55 PM 68.4 °F 40.8 °F 37% 29.78 in 10.0 mi SSE 13.8 mph 18.4 mph N/A   Clear
8:15 PM 68.0 °F 40.6 °F 37% 29.78 in 10.0 mi SSE 12.7 mph - N/A   Clear
8:35 PM 67.6 °F 40.6 °F 37% 29.78 in 10.0 mi SSE 13.8 mph - N/A   Clear
8:55 PM 67.5 °F 41.0 °F 38% 29.79 in 10.0 mi SSE 13.8 mph 18.4 mph N/A   Clear
9:15 PM 67.1 °F 41.0 °F 39% 29.80 in 10.0 mi SSE 13.8 mph 21.9 mph N/A   Clear
9:35 PM 67.1 °F 41.0 °F 39% 29.80 in 10.0 mi South 12.7 mph - N/A   Clear
9:55 PM 67.5 °F 40.1 °F 37% 29.81 in 10.0 mi South 16.1 mph - N/A   Clear
10:15 PM 67.1 °F 40.1 °F 37% 29.81 in 10.0 mi South 16.1 mph - N/A   Clear
10:35 PM 66.7 °F 40.1 °F 38% 29.81 in 10.0 mi South 15.0 mph 20.7 mph N/A   Clear
10:55 PM 66.2 °F 40.5 °F 39% 29.82 in 10.0 mi South 15.0 mph 19.6 mph N/A   Clear
11:15 PM 65.5 °F 41.0 °F 41% 29.82 in 10.0 mi South 15.0 mph 23.0 mph N/A   Clear
11:35 PM 64.8 °F 41.0 °F 42% 29.83 in 10.0 mi SSE 15.0 mph 20.7 mph N/A   Clear
11:55 PM 63.9 °F 41.4 °F 44% 29.83 in 10.0 mi SSE 15.0 mph 20.7 mph N/A   Clear